Time,TemperatureF,DewpointF,PressureIn,WindDirection,WindDirectionDegrees,WindSpeedMPH,WindSpeedGustMPH,Humidity,HourlyPrecipIn,Conditions,Clouds,dailyrainin,SoftwareType,DateUTC
2013-06-29 00:01:00,70.0,68.0,29.53,South,176,1.0,4.0,93,0.00,,,0.28,,2013-06-29 04:01:00,
2013-06-29 00:11:00,70.0,68.0,29.53,South,176,1.0,4.0,93,0.00,,,0.28,,2013-06-29 04:11:00,
2013-06-29 00:24:00,70.0,68.0,29.53,South,176,1.0,4.0,93,0.00,,,0.28,,2013-06-29 04:24:00,
2013-06-29 00:32:00,70.0,68.0,29.53,SSW,200,2.0,4.0,93,0.00,,,0.28,,2013-06-29 04:32:00,
2013-06-29 00:41:00,70.0,68.0,29.53,SSW,200,2.0,4.0,93,0.00,,,0.28,,2013-06-29 04:41:00,
2013-06-29 00:51:00,70.0,68.0,29.53,SSW,201,2.0,5.0,94,0.00,,,0.28,,2013-06-29 04:51:00,
2013-06-29 01:01:00,70.0,68.0,29.53,SSW,201,2.0,5.0,94,0.00,,,0.28,,2013-06-29 05:01:00,
2013-06-29 01:11:00,70.0,68.0,29.53,SSW,201,2.0,5.0,94,0.00,,,0.28,,2013-06-29 05:11:00,
2013-06-29 01:21:00,70.0,68.0,29.53,SSW,212,3.0,6.0,93,0.00,,,0.28,,2013-06-29 05:21:00,
2013-06-29 01:31:00,70.0,68.0,29.53,SW,233,4.0,7.0,93,0.00,,,0.28,,2013-06-29 05:31:00,
2013-06-29 01:42:00,70.0,68.0,29.51,South,188,2.0,4.0,93,0.00,,,0.28,,2013-06-29 05:42:00,
2013-06-29 02:01:00,70.0,68.0,29.51,SSE,147,1.0,4.0,94,0.00,,,0.28,,2013-06-29 06:01:00,
2013-06-29 02:12:00,70.0,68.0,29.51,SSW,210,2.0,3.0,94,0.00,,,0.28,,2013-06-29 06:12:00,
2013-06-29 02:34:00,70.0,68.0,29.51,SSE,160,1.0,3.0,94,0.00,,,0.28,,2013-06-29 06:34:00,
2013-06-29 02:43:00,70.0,68.0,29.50,SSW,208,1.0,3.0,94,0.00,,,0.28,,2013-06-29 06:43:00,
2013-06-29 02:53:00,70.0,68.0,29.50,SW,215,1.0,3.0,94,0.00,,,0.28,,2013-06-29 06:53:00,
2013-06-29 03:02:00,70.0,68.0,29.50,SSW,208,1.0,2.0,94,0.00,,,0.28,,2013-06-29 07:02:00,
2013-06-29 03:12:00,70.0,68.0,29.50,SSW,193,1.0,3.0,94,0.00,,,0.28,,2013-06-29 07:12:00,
2013-06-29 03:33:00,70.0,68.0,29.50,SW,218,1.0,3.0,94,0.00,,,0.19,,2013-06-29 07:33:00,
2013-06-29 03:43:00,70.0,68.0,29.51,SW,221,2.0,4.0,94,0.00,,,0.19,,2013-06-29 07:43:00,
2013-06-29 03:53:00,70.0,68.0,29.51,SSW,195,1.0,4.0,94,0.00,,,0.19,,2013-06-29 07:53:00,
2013-06-29 04:01:00,70.0,68.0,29.51,SSW,195,1.0,3.0,95,0.00,,,0.19,,2013-06-29 08:01:00,
2013-06-29 04:12:00,70.0,68.0,29.51,SSW,195,1.0,3.0,95,0.00,,,0.19,,2013-06-29 08:12:00,
2013-06-29 04:33:00,70.0,68.0,29.51,South,186,0.0,2.0,95,0.00,,,0.11,,2013-06-29 08:33:00,
2013-06-29 04:43:00,70.0,68.0,29.51,SW,224,0.0,2.0,95,0.00,,,0.11,,2013-06-29 08:43:00,
2013-06-29 04:52:00,70.0,68.0,29.51,South,187,0.0,0.0,95,0.00,,,0.11,,2013-06-29 08:52:00,
2013-06-29 05:02:00,70.0,68.0,29.50,SSE,165,0.0,0.0,95,0.00,,,0.11,,2013-06-29 09:02:00,
2013-06-29 05:12:00,70.0,68.0,29.51,SW,221,0.0,2.0,95,0.00,,,0.11,,2013-06-29 09:12:00,
2013-06-29 05:22:00,70.0,68.0,29.51,SSW,201,1.0,2.0,95,0.00,,,0.11,,2013-06-29 09:22:00,
2013-06-29 05:33:00,70.0,68.0,29.52,SSW,205,1.0,2.0,95,0.00,,,0.11,,2013-06-29 09:33:00,
2013-06-29 05:42:00,70.0,68.0,29.52,SSW,193,1.0,2.0,95,0.00,,,0.11,,2013-06-29 09:42:00,
2013-06-29 05:53:00,70.0,68.0,29.52,SW,225,0.0,3.0,95,0.00,,,0.11,,2013-06-29 09:53:00,
2013-06-29 06:01:00,70.0,68.0,29.53,SW,226,1.0,3.0,95,0.00,,,0.11,,2013-06-29 10:01:00,
2013-06-29 06:11:00,70.0,68.0,29.54,SSE,160,1.0,4.0,95,0.00,,,0.11,,2013-06-29 10:11:00,
2013-06-29 06:33:00,70.0,69.0,29.53,SSE,148,1.0,2.0,96,0.00,,,0.10,,2013-06-29 10:33:00,
2013-06-29 06:43:00,70.0,69.0,29.53,SSE,165,1.0,2.0,96,0.00,,,0.10,,2013-06-29 10:43:00,
2013-06-29 06:52:00,70.0,69.0,29.53,SW,217,0.0,1.0,96,0.00,,,0.10,,2013-06-29 10:52:00,
2013-06-29 07:02:00,70.0,69.0,29.54,SSW,207,0.0,1.0,96,0.00,,,0.10,,2013-06-29 11:02:00,
2013-06-29 07:11:00,70.0,69.0,29.54,SSW,199,1.0,2.0,96,0.00,,,0.10,,2013-06-29 11:11:00,
2013-06-29 07:23:00,70.0,69.0,29.54,WSW,238,0.0,1.0,96,0.00,,,0.10,,2013-06-29 11:23:00,
2013-06-29 07:33:00,70.0,69.0,29.55,SW,221,1.0,4.0,96,0.00,,,0.09,,2013-06-29 11:33:00,
2013-06-29 07:43:00,70.0,69.0,29.55,SSW,193,1.0,3.0,96,0.00,,,0.09,,2013-06-29 11:43:00,
2013-06-29 07:53:00,70.0,69.0,29.55,SSW,203,0.0,3.0,96,0.00,,,0.09,,2013-06-29 11:53:00,
2013-06-29 08:02:00,71.0,70.0,29.54,SW,226,1.0,3.0,96,0.00,,,0.09,,2013-06-29 12:02:00,
2013-06-29 08:12:00,72.0,71.0,29.54,SW,235,0.0,3.0,96,0.00,,,0.09,,2013-06-29 12:12:00,
2013-06-29 08:22:00,72.0,70.0,29.54,WSW,240,1.0,2.0,95,0.00,,,0.09,,2013-06-29 12:22:00,
2013-06-29 08:34:00,73.0,71.0,29.54,SSE,157,0.0,2.0,94,0.00,,,0.09,,2013-06-29 12:34:00,
2013-06-29 08:43:00,74.0,72.0,29.55,SSE,150,0.0,4.0,92,0.00,,,0.09,,2013-06-29 12:43:00,
2013-06-29 08:53:00,74.0,72.0,29.55,SSW,211,0.0,2.0,92,0.00,,,0.09,,2013-06-29 12:53:00,
2013-06-29 09:02:00,74.0,71.0,29.55,SE,138,0.0,2.0,91,0.00,,,0.09,,2013-06-29 13:02:00,
2013-06-29 09:34:00,76.0,73.0,29.56,SW,225,2.0,5.0,89,0.00,,,0.00,,2013-06-29 13:34:00,
2013-06-29 09:43:00,75.0,72.0,29.56,SW,231,2.0,5.0,89,0.00,,,0.00,,2013-06-29 13:43:00,
2013-06-29 10:44:00,76.0,71.0,29.56,SW,224,4.0,9.0,84,0.00,,,0.00,,2013-06-29 14:44:00,
2013-06-29 10:53:00,76.0,70.0,29.57,SSW,194,3.0,5.0,83,0.00,,,0.00,,2013-06-29 14:53:00,
2013-06-29 11:02:00,76.0,70.0,29.57,East,92,3.0,7.0,83,0.00,,,0.00,,2013-06-29 15:02:00,
2013-06-29 11:11:00,76.0,70.0,29.56,SE,143,3.0,7.0,83,0.00,,,0.00,,2013-06-29 15:11:00,
2013-06-29 11:33:00,76.0,71.0,29.55,South,187,1.0,4.0,84,0.00,,,0.00,,2013-06-29 15:33:00,
2013-06-29 11:42:00,76.0,71.0,29.54,South,189,0.0,2.0,84,0.00,,,0.00,,2013-06-29 15:42:00,
2013-06-29 11:53:00,76.0,71.0,29.56,SSE,157,1.0,4.0,84,0.00,,,0.00,,2013-06-29 15:53:00,
2013-06-29 12:02:00,76.0,71.0,29.57,SW,215,1.0,5.0,84,0.00,,,0.00,,2013-06-29 16:02:00,
2013-06-29 12:12:00,76.0,71.0,29.57,SW,226,1.0,3.0,84,0.00,,,0.00,,2013-06-29 16:12:00,
2013-06-29 12:23:00,76.0,71.0,29.57,SW,231,2.0,3.0,84,0.00,,,0.00,,2013-06-29 16:23:00,
2013-06-29 12:33:00,77.0,72.0,29.57,SSE,148,2.0,4.0,84,0.00,,,0.00,,2013-06-29 16:33:00,
2013-06-29 12:43:00,76.0,71.0,29.57,SSW,205,1.0,4.0,84,0.00,,,0.00,,2013-06-29 16:43:00,
2013-06-29 12:53:00,77.0,71.0,29.57,South,173,2.0,5.0,83,0.00,,,0.00,,2013-06-29 16:53:00,
2013-06-29 13:02:00,78.0,72.0,29.58,WSW,239,3.0,6.0,82,0.00,,,0.00,,2013-06-29 17:02:00,
2013-06-29 13:12:00,78.0,71.0,29.58,WSW,250,3.0,5.0,80,0.00,,,0.00,,2013-06-29 17:12:00,
2013-06-29 13:23:00,78.0,72.0,29.57,ESE,121,2.0,6.0,81,0.00,,,0.00,,2013-06-29 17:23:00,
2013-06-29 13:34:00,79.0,72.0,29.57,West,276,3.0,7.0,80,0.00,,,0.00,,2013-06-29 17:34:00,
2013-06-29 13:42:00,80.0,72.0,29.57,SSE,165,2.0,6.0,77,0.00,,,0.00,,2013-06-29 17:42:00,
2013-06-29 13:52:00,81.0,72.0,29.57,SE,124,2.0,8.0,75,0.00,,,0.00,,2013-06-29 17:52:00,
2013-06-29 14:02:00,81.0,71.0,29.57,South,176,3.0,6.0,72,0.00,,,0.00,,2013-06-29 18:02:00,
2013-06-29 14:12:00,81.0,71.0,29.57,SSW,197,3.0,7.0,72,0.00,,,0.00,,2013-06-29 18:12:00,
2013-06-29 14:22:00,82.0,73.0,29.56,SSW,193,1.0,9.0,74,0.00,,,0.00,,2013-06-29 18:22:00,
2013-06-29 14:34:00,82.0,71.0,29.56,South,185,3.0,11.0,70,0.00,,,0.00,,2013-06-29 18:34:00,
2013-06-29 14:43:00,83.0,73.0,29.56,South,183,2.0,4.0,73,0.00,,,0.00,,2013-06-29 18:43:00,
2013-06-29 14:53:00,83.0,72.0,29.56,SSE,155,4.0,9.0,69,0.00,,,0.00,,2013-06-29 18:53:00,
2013-06-29 15:01:00,83.0,71.0,29.56,South,176,4.0,14.0,68,0.00,,,0.00,,2013-06-29 19:01:00,
2013-06-29 15:22:00,83.0,71.0,29.56,SSE,149,4.0,9.0,67,0.00,,,0.00,,2013-06-29 19:22:00,
2013-06-29 15:34:00,83.0,70.0,29.56,South,181,4.0,10.0,65,0.00,,,0.00,,2013-06-29 19:34:00,
2013-06-29 15:43:00,84.0,70.0,29.56,SW,224,5.0,10.0,63,0.00,,,0.00,,2013-06-29 19:43:00,
2013-06-29 15:54:00,84.0,70.0,29.56,SW,226,4.0,8.0,64,0.00,,,0.00,,2013-06-29 19:54:00,
2013-06-29 16:02:00,84.0,70.0,29.56,SW,224,4.0,10.0,63,0.00,,,0.00,,2013-06-29 20:02:00,
2013-06-29 16:12:00,84.0,72.0,29.56,SSW,198,2.0,8.0,67,0.00,,,0.00,,2013-06-29 20:12:00,
2013-06-29 16:23:00,84.0,72.0,29.56,South,186,3.0,5.0,67,0.00,,,0.00,,2013-06-29 20:23:00,
2013-06-29 16:33:00,84.0,71.0,29.57,SE,138,6.0,11.0,65,0.00,,,0.00,,2013-06-29 20:33:00,
2013-06-29 16:43:00,84.0,71.0,29.57,SSW,205,4.0,11.0,66,0.00,,,0.00,,2013-06-29 20:43:00,
2013-06-29 16:52:00,83.0,71.0,29.57,SSE,155,4.0,12.0,67,0.00,,,0.00,,2013-06-29 20:52:00,
2013-06-29 17:02:00,83.0,70.0,29.57,SSW,200,3.0,12.0,66,0.00,,,0.00,,2013-06-29 21:02:00,
2013-06-29 17:11:00,83.0,71.0,29.57,SSW,198,3.0,9.0,67,0.00,,,0.00,,2013-06-29 21:11:00,
2013-06-29 17:22:00,83.0,70.0,29.57,SSW,201,5.0,10.0,66,0.00,,,0.00,,2013-06-29 21:22:00,
2013-06-29 17:32:00,83.0,70.0,29.58,SSE,162,6.0,10.0,65,0.00,,,0.00,,2013-06-29 21:32:00,
2013-06-29 17:42:00,82.0,69.0,29.58,SW,222,4.0,11.0,66,0.00,,,0.00,,2013-06-29 21:42:00,
2013-06-29 18:01:00,82.0,69.0,29.58,ESE,119,4.0,9.0,65,0.00,,,0.00,,2013-06-29 22:01:00,
2013-06-29 18:11:00,82.0,69.0,29.58,ESE,113,4.0,8.0,66,0.00,,,0.00,,2013-06-29 22:11:00,
2013-06-29 18:22:00,81.0,69.0,29.58,SSW,209,4.0,8.0,67,0.00,,,0.00,,2013-06-29 22:22:00,
2013-06-29 18:33:00,81.0,69.0,29.59,SSW,210,3.0,9.0,68,0.00,,,0.00,,2013-06-29 22:33:00,
2013-06-29 18:43:00,81.0,69.0,29.59,SW,221,3.0,8.0,68,0.00,,,0.00,,2013-06-29 22:43:00,
2013-06-29 18:53:00,81.0,69.0,29.59,South,169,3.0,7.0,68,0.00,,,0.00,,2013-06-29 22:53:00,
2013-06-29 19:02:00,80.0,69.0,29.59,SSW,208,2.0,6.0,69,0.00,,,0.00,,2013-06-29 23:02:00,
2013-06-29 19:12:00,79.0,68.0,29.59,SSE,153,5.0,8.0,69,0.00,,,0.00,,2013-06-29 23:12:00,
2013-06-29 19:23:00,79.0,69.0,29.59,SSE,153,3.0,7.0,71,0.00,,,0.00,,2013-06-29 23:23:00,
2013-06-29 19:34:00,78.0,68.0,29.60,SSE,152,4.0,5.0,72,0.00,,,0.00,,2013-06-29 23:34:00,
2013-06-29 19:43:00,77.0,68.0,29.60,SSE,158,3.0,7.0,74,0.00,,,0.00,,2013-06-29 23:43:00,
2013-06-29 20:02:00,77.0,69.0,29.61,South,183,2.0,5.0,76,0.00,,,0.00,,2013-06-30 00:02:00,
2013-06-29 20:12:00,76.0,68.0,29.61,SSE,161,3.0,6.0,77,0.00,,,0.00,,2013-06-30 00:12:00,
2013-06-29 20:22:00,76.0,68.0,29.61,South,180,3.0,5.0,77,0.00,,,0.00,,2013-06-30 00:22:00,
2013-06-29 20:33:00,76.0,68.0,29.62,South,185,2.0,4.0,77,0.00,,,0.00,,2013-06-30 00:33:00,
2013-06-29 20:43:00,75.0,68.0,29.62,SW,215,1.0,4.0,78,0.00,,,0.00,,2013-06-30 00:43:00,
2013-06-29 20:52:00,75.0,68.0,29.62,South,188,2.0,4.0,79,0.00,,,0.00,,2013-06-30 00:52:00,
2013-06-29 21:01:00,75.0,68.0,29.63,South,184,1.0,4.0,80,0.00,,,0.00,,2013-06-30 01:01:00,
2013-06-29 21:12:00,74.0,68.0,29.64,South,169,2.0,3.0,81,0.00,,,0.00,,2013-06-30 01:12:00,
2013-06-29 21:22:00,74.0,68.0,29.64,South,184,1.0,3.0,82,0.00,,,0.00,,2013-06-30 01:22:00,
2013-06-29 21:33:00,73.0,67.0,29.65,WSW,239,2.0,3.0,82,0.00,,,0.00,,2013-06-30 01:33:00,
2013-06-29 21:44:00,73.0,67.0,29.65,South,173,1.0,5.0,82,0.00,,,0.00,,2013-06-30 01:44:00,
2013-06-29 21:53:00,73.0,67.0,29.66,South,169,2.0,4.0,82,0.00,,,0.00,,2013-06-30 01:53:00,
2013-06-29 22:02:00,73.0,68.0,29.65,South,173,0.0,2.0,83,0.00,,,0.00,,2013-06-30 02:02:00,
2013-06-29 22:11:00,72.0,67.0,29.66,South,184,1.0,2.0,85,0.00,,,0.00,,2013-06-30 02:11:00,
2013-06-29 22:24:00,72.0,68.0,29.67,SSW,205,1.0,2.0,86,0.00,,,0.00,,2013-06-30 02:24:00,
2013-06-29 22:34:00,71.0,67.0,29.67,SSW,211,1.0,2.0,87,0.00,,,0.00,,2013-06-30 02:34:00,
2013-06-29 22:43:00,71.0,68.0,29.67,SSW,200,1.0,3.0,89,0.00,,,0.00,,2013-06-30 02:43:00,
2013-06-29 22:53:00,71.0,68.0,29.67,South,181,2.0,4.0,90,0.00,,,0.00,,2013-06-30 02:53:00,
2013-06-29 23:02:00,71.0,68.0,29.67,South,187,2.0,4.0,90,0.00,,,0.00,,2013-06-30 03:02:00,
2013-06-29 23:12:00,71.0,68.0,29.68,South,183,2.0,4.0,90,0.00,,,0.00,,2013-06-30 03:12:00,
2013-06-29 23:23:00,71.0,68.0,29.68,South,176,2.0,5.0,90,0.00,,,0.00,,2013-06-30 03:23:00,
2013-06-29 23:33:00,71.0,68.0,29.69,SSE,153,2.0,5.0,90,0.00,,,0.00,,2013-06-30 03:33:00,
2013-06-29 23:43:00,71.0,68.0,29.69,SW,222,2.0,5.0,89,0.00,,,0.00,,2013-06-30 03:43:00,
2013-06-29 23:53:00,71.0,68.0,29.69,South,188,2.0,5.0,89,0.00,,,0.00,,2013-06-30 03:53:00,